Wind_Speed
7 7 7 7 7 7 7 7 8 8 9 9 9 10 10 11 11 12 13 14 15 15 16 17 18 19 19 20 20 21 22 23 23 23 24 24 25 25 26 26 26 27 27
6 7 7 7 7 7 8 8 8 8 9 9 10 10 11 11 12 13 14 15 16 16 17 18 19 19 20 21 22 22 23 24 24 24 25 25 26 27 27 28 28 29 29
6 6 6 7 7 7 8 8 8 9 9 9 10 11 11 12 13 14 15 16 16 17 18 18 19 20 21 21 22 23 23 24 25 25 26 27 28 28 29 29 29 30 30
6 6 6 7 7 7 8 8 8 8 9 10 10 11 12 13 14 15 16 16 17 18 18 19 20 21 21 22 23 24 24 25 25 26 26 27 27 28 28 29 29 29 30
7 7 7 6 7 7 8 8 8 9 9 10 11 11 12 13 14 15 16 16 17 18 19 20 21 21 22 22 23 24 24 25 25 26 26 26 27 27 28 28 29 29 30
7 7 7 7 7 7 8 8 9 9 10 11 11 12 13 14 14 15 16 17 17 18 19 20 20 21 21 22 22 23 24 24 25 25 26 26 27 27 28 28 29 29 30
7 7 7 7 7 8 9 9 9 10 11 12 13 13 14 15 15 15 16 17 18 19 19 20 20 20 21 22 22 23 24 24 25 25 26 26 27 27 28 28 29 30 30
7 7 7 8 8 8 9 10 10 11 12 13 13 14 15 15 16 16 17 18 19 20 20 21 21 21 22 23 23 24 24 25 25 25 26 27 27 28 28 29 29 30 30
7 8 8 8 9 9 10 10 11 12 13 14 14 15 15 16 16 17 18 19 20 20 21 21 22 22 23 24 24 25 25 25 26 26 26 27 27 28 28 29 29 30 30
9 9 9 9 10 10 11 11 12 13 13 14 15 15 16 17 18 19 19 19 20 21 21 22 22 23 24 25 25 26 26 26 27 27 27 28 28 29 29 29 30 30 31
10 10 10 10 10 11 11 12 13 13 14 15 15 16 17 18 18 19 19 20 20 21 22 22 23 24 25 25 26 26 27 27 28 28 28 29 29 29 30 30 30 31 31
12 12 12 11 12 12 13 13 13 13 14 15 16 16 17 17 18 19 20 20 21 22 23 24 24 25 26 26 27 27 28 28 29 29 29 29 30 30 30 31 31 31 32
14 14 14 14 14 14 14 13 14 15 15 16 16 17 17 18 19 20 20 21 22 23 24 25 25 26 26 27 27 28 28 29 29 30 30 30 30 31 31 31 32 32 32
15 16 16 15 15 15 15 15 16 16 17 17 18 18 18 19 20 21 21 22 23 24 24 25 26 27 27 28 28 29 29 29 30 30 30 31 31 31 32 32 32 33 33
17 17 17 17 16 16 17 17 17 18 18 19 19 19 20 21 21 22 23 23 24 24 25 26 26 27 28 28 29 29 29 30 30 30 31 32 32 32 33 33 33 34 34
19 19 19 18 18 18 18 19 19 19 19 20 20 21 21 22 23 23 24 24 25 25 26 26 27 28 28 29 29 30 30 30 31 31 32 32 33 33 34 34 35 35 36
21 21 20 20 20 20 20 20 21 21 21 21 22 22 23 23 24 24 24 25 25 26 26 27 28 28 29 30 30 30 30 31 31 32 32 33 34 34 35 36 36 37 37
22 22 22 22 22 22 22 22 22 22 22 22 23 24 24 25 25 25 25 25 26 27 27 28 28 29 30 30 30 31 31 32 33 33 34 34 35 35 36 37 37 37 38
24 24 24 24 24 23 23 24 24 24 24 24 24 25 25 25 25 26 26 26 27 28 28 28 29 30 30 31 31 32 32 33 34 34 35 35 35 36 37 37 38 38 39
26 26 26 26 26 25 25 25 25 25 25 26 26 26 27 26 26 26 26 27 28 28 29 29 30 30 31 31 32 32 33 34 34 35 36 36 37 37 38 38 39 39 40
28 28 28 27 27 27 26 27 27 27 27 27 27 27 27 27 27 27 27 28 28 29 29 30 31 31 32 33 33 34 34 35 36 36 37 37 38 38 38 39 40 40 41
30 29 29 29 28 28 28 28 28 28 28 28 28 28 28 28 28 28 28 28 29 29 30 31 31 32 33 34 34 35 35 35 36 37 37 38 38 39 39 40 41 42 42
31 31 31 30 29 29 29 30 30 30 29 29 30 29 29 29 29 29 29 29 30 30 30 31 32 33 34 35 35 36 37 36 37 37 38 39 39 40 40 41 42 43 43
33 32 32 32 31 30 31 31 30 30 30 31 30 30 30 30 30 30 30 31 31 31 31 32 33 34 35 35 36 37 38 39 39 38 38 39 40 41 42 43 44 44 45
34 34 33 33 32 32 32 32 31 32 32 32 31 31 31 31 31 31 31 32 32 32 32 33 34 35 36 36 37 38 39 40 40 41 40 41 41 42 43 44 45 46 46
35 35 34 34 34 33 33 33 32 33 33 32 32 32 32 32 31 32 32 32 33 33 34 34 35 36 37 38 38 39 40 41 41 42 43 43 43 43 45 46 46 47 48
Wind_Direction
263 264 262 261 264 267 272 276 278 279 281 285 287 289 291 293 294 295 294 295 294 293 293 292 291 290 290 290 289 289 289 288 288 288 288 287 287 286 285 284 284 283 282
266 265 265 264 266 270 274 278 281 284 287 289 291 292 293 295 295 295 296 296 296 295 294 293 292 292 292 291 290 289 289 288 288 288 288 288 287 287 285 284 283 283 281
271 271 272 270 270 273 278 283 285 287 290 292 295 297 297 298 298 298 297 297 297 297 296 295 294 293 293 292 291 291 290 290 289 289 288 288 287 287 286 285 284 282 282
273 276 276 273 274 277 280 283 284 288 291 293 296 298 300 300 301 301 300 299 299 299 298 297 296 295 294 293 292 292 291 291 291 290 289 288 288 287 286 286 285 283 282
273 275 276 274 276 277 279 281 283 288 291 294 296 299 300 302 303 304 303 302 302 302 301 301 300 299 298 296 295 294 293 293 293 292 291 289 289 288 287 287 286 285 284
273 276 276 276 278 280 282 284 286 289 293 296 298 301 303 305 306 306 306 306 306 305 305 304 303 302 301 300 299 298 297 296 296 294 293 292 291 290 289 288 287 286 285
271 273 277 279 281 284 285 285 288 292 296 298 300 302 304 305 306 307 308 308 308 307 307 307 307 306 304 303 302 301 300 299 298 296 295 294 294 293 291 290 289 288 287
267 272 278 282 284 286 287 288 290 294 297 299 301 302 304 305 307 307 308 308 308 308 308 308 308 307 307 306 304 304 303 302 300 299 298 297 295 294 293 292 291 291 290
269 274 280 285 286 288 288 289 291 294 297 299 301 303 305 307 308 308 309 309 308 308 308 309 309 308 307 306 305 305 304 303 302 301 300 299 298 297 295 294 293 292 292
269 275 283 287 289 290 291 292 294 295 298 300 302 304 305 307 308 309 310 310 309 309 309 309 309 309 309 308 307 305 305 304 304 303 301 300 299 298 296 295 294 293 292
269 275 282 287 291 293 294 295 297 299 300 302 303 303 305 306 308 309 310 310 310 310 310 310 310 309 309 309 308 307 306 305 305 303 302 301 300 299 297 296 295 294 293
269 275 281 285 289 291 293 296 299 301 302 304 305 305 306 307 307 308 309 309 310 310 310 310 310 309 309 309 309 308 307 307 306 305 304 302 300 299 298 297 296 295 294
270 275 281 285 288 290 292 294 298 300 302 304 305 306 307 307 308 308 308 309 310 310 311 311 310 310 310 309 309 308 307 307 306 305 304 303 301 300 298 297 296 295 294
271 276 279 283 286 288 290 292 296 298 299 302 303 304 305 306 308 308 308 310 311 311 311 311 310 310 310 310 309 308 307 307 306 306 304 303 302 300 299 298 297 295 294
271 275 279 281 284 286 288 291 294 296 297 299 302 304 305 306 306 307 309 310 310 310 310 310 310 310 311 310 309 309 308 307 306 306 305 304 303 301 300 299 298 297 296
270 274 277 279 281 284 286 290 292 294 295 298 300 302 304 305 306 307 307 308 309 310 310 309 310 310 310 310 310 309 309 309 308 307 306 305 304 303 302 301 300 299 298
270 273 276 279 281 282 285 288 291 293 295 296 299 301 303 304 305 306 306 307 308 309 309 309 309 310 310 310 310 311 311 311 310 309 307 306 304 304 303 302 301 300 298
269 272 275 277 279 281 284 287 290 291 293 295 296 299 301 302 303 304 305 305 306 307 308 309 309 309 310 311 311 311 312 311 311 310 308 306 305 304 304 302 301 301 300
268 271 274 277 279 280 283 286 288 289 291 293 294 296 299 301 301 302 303 304 305 306 308 308 308 309 309 310 310 310 311 311 311 310 309 307 306 305 304 303 302 301 300
268 271 273 276 278 279 282 284 287 288 289 291 292 294 297 298 300 301 302 304 305 306 306 307 307 308 309 309 309 310 310 310 310 309 309 308 307 306 305 304 302 301 301
267 270 272 275 277 278 281 283 286 287 288 289 290 292 295 296 298 300 300 302 303 304 305 306 307 308 309 309 309 309 310 310 309 309 309 308 307 306 305 304 303 302 301
267 269 271 274 276 277 280 282 284 285 286 287 289 291 293 294 296 297 298 300 301 302 304 305 306 307 308 308 309 309 309 309 309 309 308 307 306 305 304 304 303 302 301
266 269 270 273 275 277 279 280 282 283 285 287 288 290 292 292 294 295 296 297 299 301 302 304 305 306 307 308 308 309 310 310 309 309 308 307 306 305 304 304 303 303 302
265 267 270 272 274 276 278 280 281 282 284 286 288 289 289 291 293 294 294 296 298 300 301 303 304 305 306 307 307 308 309 309 309 309 308 307 306 305 304 304 304 303 303
264 266 268 271 273 275 277 279 280 281 283 285 286 287 288 290 291 292 293 295 297 299 300 302 304 304 305 306 306 307 308 308 308 308 308 307 306 305 304 304 304 303 302
264 265 267 270 272 274 276 278 279 280 282 284 286 287 288 289 290 291 292 294 296 297 299 301 302 303 304 305 306 306 307 307 307 307 307 307 306 305 305 304 303 303 302
Height
5866 5866 5866 5867 5867 5867 5868 5868 5868 5868 5868 5868 5867 5867 5866 5866 5866 5865 5865 5864 5864 5863 5863 5862 5861 5860 5860 5859 5858 5857 5856 5855 5854 5853 5852 5851 5850 5850 5849 5848 5848 5847 5846
5865 5865 5865 5865 5866 5866 5866 5866 5866 5866 5866 5866 5866 5865 5865 5864 5864 5864 5863 5862 5862 5861 5860 5860 5859 5858 5857 5856 5855 5854 5853 5852 5851 5850 5849 5848 5847 5846 5845 5844 5843 5842 5841
5863 5863 5864 5864 5864 5864 5865 5865 5865 5865 5864 5864 5864 5863 5863 5862 5862 5861 5861 5860 5859 5859 5858 5857 5856 5855 5854 5853 5851 5850 5849 5848 5847 5846 5845 5844 5843 5842 5840 5839 5838 5837 5837
5862 5862 5862 5863 5863 5863 5863 5863 5863 5863 5863 5862 5862 5862 5861 5861 5860 5859 5859 5858 5857 5856 5855 5854 5853 5852 5850 5849 5848 5847 5845 5844 5843 5842 5841 5840 5838 5837 5836 5835 5833 5832 5831
5861 5861 5861 5861 5861 5861 5861 5861 5861 5861 5861 5861 5860 5860 5859 5858 5858 5857 5856 5855 5854 5853 5852 5851 5849 5848 5847 5846 5844 5843 5842 5840 5839 5838 5837 5835 5834 5832 5831 5830 5829 5827 5826
5859 5859 5860 5860 5860 5860 5860 5860 5859 5859 5859 5859 5858 5858 5857 5856 5856 5855 5854 5853 5851 5850 5849 5848 5846 5845 5844 5842 5841 5839 5838 5836 5835 5834 5832 5831 5829 5828 5826 5825 5824 5822 5821
5858 5858 5858 5858 5858 5858 5858 5858 5858 5857 5857 5856 5856 5855 5855 5854 5853 5852 5851 5850 5849 5847 5846 5845 5843 5842 5840 5839 5837 5836 5834 5833 5831 5830 5828 5826 5825 5823 5822 5820 5818 5817 5816
5857 5857 5856 5856 5856 5856 5856 5856 5855 5855 5855 5854 5854 5853 5852 5851 5851 5849 5848 5847 5846 5844 5843 5842 5840 5839 5837 5835 5834 5832 5830 5829 5827 5825 5823 5821 5820 5818 5816 5815 5813 5812 5810
5855 5855 5855 5855 5854 5854 5854 5854 5853 5853 5852 5852 5851 5850 5849 5849 5848 5846 5845 5844 5842 5841 5839 5838 5836 5835 5833 5831 5829 5828 5826 5824 5822 5820 5819 5817 5815 5813 5811 5809 5808 5806 5804
5853 5853 5853 5853 5852 5852 5852 5851 5851 5850 5850 5849 5848 5847 5846 5846 5844 5843 5842 5840 5839 5837 5836 5834 5832 5831 5829 5827 5825 5823 5821 5820 5818 5816 5814 5812 5810 5808 5806 5804 5802 5800 5798
5850 5851 5851 5851 5850 5850 5849 5849 5848 5848 5847 5846 5845 5844 5843 5842 5841 5840 5838 5837 5835 5834 5832 5830 5828 5827 5825 5823 5821 5819 5817 5815 5813 5811 5808 5806 5804 5802 5800 5798 5796 5794 5792
5848 5848 5848 5848 5848 5847 5847 5846 5845 5845 5844 5843 5842 5841 5840 5839 5838 5836 5835 5833 5832 5830 5828 5826 5824 5822 5820 5818 5816 5814 5812 5810 5808 5805 5803 5801 5798 5796 5794 5792 5790 5788 5785
5845 5845 5845 5845 5845 5844 5844 5843 5842 5842 5841 5840 5839 5838 5836 5835 5834 5833 5831 5829 5828 5826 5824 5822 5820 5818 5816 5814 5811 5809 5807 5805 5802 5800 5797 5795 5792 5790 5788 5786 5783 5781 5779
5841 5842 5842 5841 5841 5841 5840 5840 5839 5838 5837 5836 5835 5834 5833 5832 5830 5829 5827 5825 5824 5822 5820 5818 5816 5813 5811 5809 5806 5804 5802 5799 5797 5794 5791 5789 5786 5784 5781 5779 5777 5774 5772
5838 5838 5838 5838 5837 5837 5837 5836 5835 5835 5834 5833 5831 5830 5829 5828 5826 5825 5823 5821 5819 5817 5815 5813 5811 5809 5806 5804 5801 5799 5796 5794 5791 5788 5786 5783 5780 5778 5775 5773 5770 5767 5765
5834 5834 5834 5834 5834 5833 5833 5832 5831 5831 5830 5829 5827 5826 5825 5823 5822 5820 5818 5816 5814 5812 5810 5808 5806 5804 5801 5799 5796 5793 5791 5788 5785 5783 5780 5777 5774 5771 5768 5766 5763 5760 5758
5829 5829 5829 5829 5829 5829 5829 5828 5827 5826 5825 5824 5823 5822 5820 5818 5817 5815 5813 5811 5809 5807 5805 5803 5801 5798 5796 5793 5790 5788 5785 5782 5779 5776 5774 5771 5768 5765 5762 5759 5756 5753 5750
5824 5824 5824 5824 5824 5824 5824 5823 5823 5822 5821 5820 5818 5817 5815 5813 5812 5810 5808 5806 5804 5802 5800 5798 5795 5793 5790 5788 5785 5782 5779 5776 5773 5770 5767 5764 5761 5758 5755 5751 5748 5745 5742
5818 5819 5819 5819 5819 5819 5819 5818 5817 5817 5816 5814 5813 5812 5810 5808 5806 5805 5803 5801 5799 5797 5795 5792 5790 5787 5785 5782 5779 5776 5773 5770 5767 5763 5760 5757 5754 5751 5747 5744 5740 5737 5734
5813 5813 5814 5814 5814 5813 5813 5813 5812 5811 5810 5809 5808 5806 5805 5803 5801 5799 5797 5795 5793 5791 5789 5786 5784 5781 5778 5776 5773 5770 5767 5763 5760 5756 5753 5750 5746 5743 5740 5736 5733 5729 5725
5807 5807 5808 5808 5808 5807 5807 5807 5806 5806 5805 5803 5802 5800 5799 5797 5795 5794 5792 5790 5787 5785 5783 5780 5778 5775 5772 5769 5766 5763 5760 5757 5753 5749 5746 5742 5739 5735 5731 5728 5724 5720 5717
5800 5801 5801 5802 5801 5801 5801 5801 5800 5799 5798 5797 5796 5794 5793 5791 5789 5787 5786 5784 5781 5779 5776 5774 5771 5768 5765 5762 5759 5756 5754 5751 5746 5743 5739 5735 5731 5727 5723 5719 5715 5712 5708
5794 5794 5795 5795 5795 5795 5794 5794 5793 5792 5791 5791 5789 5788 5786 5785 5783 5781 5779 5777 5775 5773 5770 5767 5764 5762 5759 5755 5751 5748 5745 5743 5739 5736 5731 5727 5723 5719 5715 5711 5706 5702 5698
5787 5787 5787 5788 5788 5788 5787 5787 5786 5786 5785 5784 5783 5781 5779 5778 5776 5774 5772 5770 5768 5766 5763 5760 5757 5754 5751 5748 5744 5740 5737 5733 5730 5727 5724 5719 5715 5710 5706 5701 5697 5692 5688
5779 5779 5780 5780 5781 5781 5780 5780 5779 5779 5778 5776 5776 5774 5772 5771 5769 5767 5765 5763 5761 5758 5756 5753 5750 5747 5744 5740 5736 5732 5728 5724 5720 5717 5714 5711 5706 5701 5696 5692 5687 5682 5678
5770 5771 5772 5772 5773 5773 5773 5772 5772 5771 5770 5769 5768 5767 5765 5764 5762 5760 5758 5756 5753 5751 5748 5745 5742 5739 5735 5732 5728 5724 5720 5716 5712 5707 5704 5700 5696 5692 5687 5682 5676 5671 5667